Vertical_Velocity
3 -2 -1 -1 -1 -1 -1 -0 -0 -0 -0 -0 -0 -0 -0 -0 -0 -0 -1 -1 -0 -0 0 -0 -0 -0 -0 0 0 0 0 -1 -1 -1 -0 0 0 -0 -0 -1 -1 -1 -1 -0 0 1 1 1 0 -0 -0 -1 -1 -0 -0 -0 -1 -1 -1 -1 -2 -2 -1 3 4 2 -0 -1 -1 -1 -0 -1 -1 -1 -1 -1 -1 -1 -1 -1 -2 -1 -1 -1 -1 -1 -1 -0 0 0 -1 -0 -1 -1 0 0 -0 -1 -1 0 0 -1 -1
2 0 -2 -1 -1 -0 -0 -0 -0 -0 -0 -1 -1 -1 -1 -0 -0 -0 -1 -1 -0 0 0 -0 -0 0 -0 0 0 0 -0 -1 -1 -1 -0 0 0 -0 -0 -1 -1 -1 -0 0 1 1 1 1 1 0 -0 -0 -0 -0 -0 -0 -1 -1 -1 -2 -2 -1 1 3 1 -1 -2 -2 -1 -1 -1 -1 -1 -1 -1 -0 -1 -1 1 -0 -1 -1 -1 -1 -1 -1 -1 -1 -2 -2 -1 -1 -1 -1 -1 1 -0 -2 -2 -0 0 0 -2
-1 -1 -1 -1 -1 -0 -1 -0 -0 -0 -0 -1 -1 -1 -0 0 0 -0 -0 -0 -0 0 -0 0 -0 -0 -0 0 0 0 -0 -1 -1 -1 0 0 0 -0 -0 -1 -1 -0 -0 1 1 1 1 1 0 0 -0 -0 -0 -0 -0 -0 -0 -0 -1 -2 -1 0 4 2 -1 -2 -2 -1 -1 -1 -1 -1 -1 -1 -1 -1 -0 -0 0 0 0 0 -1 -0 -0 -1 -1 -2 -2 -2 -2 -2 -1 -1 -1 -0 -1 -1 -1 -1 -1 -1 -2
-2 -1 -1 -1 -1 -1 -1 -0 -0 -0 -0 -1 -1 -0 0 0 0 0 -1 -1 -0 -0 0 -0 -0 0 0 0 0 0 -0 -1 -1 -0 0 1 0 -0 -1 -1 -1 -0 0 1 1 1 0 0 -0 -0 -0 -0 -0 -0 -0 -0 -0 -1 -1 -2 0 2 3 1 -1 -2 -1 -1 -1 -1 -1 -1 -1 -1 -1 -1 -1 -1 -1 -1 0 0 -2 0 0 -1 -2 -2 -1 -1 -1 -1 -0 -0 -1 -1 -1 -1 -2 -1 -1 -1 -1
-1 -1 -1 -0 -0 -0 -0 -0 -0 -1 -0 -0 -0 -0 0 0 0 -0 -1 -1 -1 -1 0 0 0 0 0 1 1 0 -0 -1 -1 -0 1 1 0 -0 -1 -1 -1 -0 0 0 1 0 -0 -0 -0 -1 -1 -1 -0 -0 -0 -0 -1 -1 -2 -0 2 4 3 0 -1 -2 -1 -1 -1 -1 -1 -1 -1 -1 -1 -1 -1 -1 -1 -1 -1 -1 -1 -1 -0 -1 -2 -2 -1 0 -1 -1 -0 -0 -1 -1 -1 -1 -2 -1 -1 -1 -1
-1 -1 -1 -0 -0 -0 -0 -0 -0 -1 -0 -0 0 0 0 0 0 -0 -0 -1 -1 -1 -0 0 0 1 1 1 1 0 -1 -1 -0 0 1 0 0 -0 -1 -1 -0 -0 0 0 0 0 -0 -1 -1 -1 -1 -0 -0 -0 -0 -1 -2 -2 -2 1 4 4 1 -1 -2 -1 -1 -1 -1 -1 -1 -1 -1 -1 -1 -1 -1 -2 -2 -2 -2 -1 -1 -1 -1 -1 -1 -2 -2 -2 -2 -1 -1 -1 -1 -1 -1 -1 -1 -1 -1 -1 -1
-1 -1 -1 -0 -0 0 -0 -0 -0 -0 0 0 -0 -0 -0 -1 -1 -0 0 -1 -1 -1 -0 0 1 1 1 1 1 -0 -1 -1 -0 0 1 0 -0 -0 -0 -0 -0 0 0 1 0 0 -0 -0 -0 -1 -0 -0 0 -0 -1 -1 -1 -2 -2 -0 1 1 -2 -2 -2 -1 -1 -1 -1 -1 -1 -1 -1 -1 -1 -1 -1 -1 -2 -2 -2 -2 -1 -1 -1 -1 -1 -1 -1 -1 -1 -1 -1 -1 -1 -1 -1 -1 -1 -1 -1 -1 -1
-1 -0 -0 -0 -0 -0 -0 -0 -0 -0 -0 -1 -1 -0 -1 -0 -1 -1 0 -0 -0 -0 -0 0 0 1 1 1 0 -0 -1 -1 -0 0 1 0 -0 -0 -0 -0 0 0 1 0 0 -0 -0 -0 -0 -0 0 0 0 -1 -2 0 0 -1 -1 -2 -2 -1 -1 -1 -1 -1 -1 -1 -1 -1 -1 -1 -1 -1 -1 -1 -1 -1 -1 -2 -2 -2 -2 -2 -2 -1 -1 -1 -1 -1 -1 -1 -1 -1 -1 -1 -1 -1 -1 -1 -1 -1 -1
-0 -0 0 -0 -0 0 0 0 -0 -1 -1 -2 -1 -1 -3 -0 -0 -1 0 0 -0 -1 -0 -0 0 0 1 0 0 -0 -1 -0 0 1 1 0 -0 -0 0 0 1 1 1 0 -0 -0 0 -0 0 0 0 0 0 -0 -1 -1 -1 -1 -1 -2 -2 -1 -1 -1 -1 -1 -1 -1 -1 -1 -1 -1 -1 -1 -1 -1 -1 -1 -1 -2 -2 -2 -2 -2 -2 -2 -2 -1 -1 -1 -1 -1 -1 -1 -1 -1 -1 -1 -1 -1 -1 -1 -1
-0 0 0 0 0 0 0 -0 -1 -1 -1 1 2 1 -0 1 1 -0 0 -0 -0 -1 -1 -1 -0 0 0 0 -0 -0 -1 -0 0 0 0 0 0 0 0 1 1 1 1 0 -0 -0 0 0 0 0 0 0 -0 -0 -0 -1 -1 -1 -0 -0 -0 -0 -1 -1 -1 -1 -1 -1 -1 -1 -1 -1 -1 -1 -1 -1 -1 -1 -1 -1 -2 -2 -2 -2 -2 -2 -2 -1 -2 -2 -1 -1 -1 -1 -1 -1 -1 -1 -1 -1 -1 -1 -1
0 0 0 0 0 -0 -1 -1 -1 -1 1 3 4 5 6 3 1 -0 -0 -1 -1 -1 -2 -1 -0 0 0 0 -0 -0 -1 -0 0 0 0 0 0 0 0 1 1 0 0 0 -0 -0 0 0 0 0 0 -0 -0 -0 -0 -0 -0 -0 -0 -0 -0 -0 -0 -0 -0 -0 -0 -1 -0 -1 -1 -1 -1 -1 -1 -1 -1 -1 -1 -1 -1 -1 -2 -2 -2 -2 -1 -1 -2 -2 -1 -1 -1 -1 -1 -1 -1 -1 -1 -1 -1 -1 -1
0 -0 -1 -1 -0 -0 -1 -0 0 1 1 2 1 2 5 2 -0 -1 -0 -0 -1 -1 -1 -1 -1 0 0 0 -0 -0 -1 -0 -0 0 0 0 0 0 0 1 0 0 0 -0 -0 -0 0 0 0 -0 -0 -1 -1 -1 -0 0 0 0 0 -0 0 0 -0 -0 -0 -0 -0 -0 -0 -0 -1 -1 -1 -1 -1 -1 -1 -1 -1 -1 -1 -1 -1 -1 -1 -1 -1 -1 -1 -1 -1 -1 -1 -1 -1 -1 -1 -1 -1 -1 -1 -1 -2
-1 -1 -1 -1 -1 -0 0 1 2 1 -1 0 1 1 1 -1 -1 -1 -0 -0 -0 -0 -1 -1 -1 0 0 0 -0 -0 -1 -1 -0 0 0 0 0 0 0 0 0 0 -0 -0 -0 -0 0 0 0 -0 -0 -1 -0 -0 -0 0 0 0 -0 -0 -0 -0 0 -0 -1 -1 -0 -0 -0 -1 -0 -1 -1 -1 -1 -0 -0 -1 -1 -1 -1 -1 -1 -1 -1 -1 -1 -1 -1 -1 -1 -1 -1 -1 -1 -1 -1 -2 -2 -2 -2 -2 -2
-1 -1 -1 -1 -0 -0 -0 1 1 -0 -2 -1 0 0 -1 -2 -1 -1 -0 -0 -0 -0 -1 -1 -1 -0 0 0 -0 -1 -1 -1 -0 0 0 0 0 0 0 0 0 -0 -0 -0 0 0 0 0 -0 -0 -0 -0 -0 -0 0 0 0 -0 -1 -0 -1 -0 1 0 -1 -1 -1 -0 -0 -1 -0 -1 -1 -1 -1 -1 -1 -1 -1 -1 -1 -1 -1 -1 -1 -1 -1 -1 -1 -1 -1 -1 -1 -1 -1 -1 -2 -2 -2 -2 -2 -2 -2
-2 -1 0 -0 0 1 -0 -0 -1 -1 -1 -2 -0 1 -3 -2 -1 -0 -0 -0 -0 -1 -1 -1 -1 0 0 -0 -1 -1 -1 -1 0 1 0 0 0 0 0 -0 -0 -0 -0 -0 0 0 0 0 -0 -0 -0 -0 -0 -0 -0 -0 -1 -1 -1 -1 -0 -0 -0 0 -0 -1 -0 -0 -0 -0 -0 -1 -1 -1 -1 -1 -1 -1 -1 -1 -1 -1 -1 -1 -1 -1 -1 -1 -1 -1 -1 -1 -1 -1 -2 -2 -2 -2 -1 -1 -2 -2 -2
0 -0 0 -1 -0 1 1 -1 -1 -1 -1 -2 2 5 -0 -1 -1 -0 -0 0 -0 -1 -0 -1 -0 0 0 -0 -1 -1 -1 -0 1 1 1 0 0 0 -0 -0 -0 -1 -0 -0 0 0 0 0 0 0 0 -0 0 0 -0 -0 -1 -1 -1 -1 -1 -0 -0 -0 -0 -0 -0 0 -0 -0 -1 -1 -1 -1 -1 -1 -1 -1 -1 -1 -1 -1 -1 -1 -1 -1 -1 -1 -1 -1 -1 -1 -1 -1 -2 -2 -1 -1 -1 -1 -1 -2 -2
3 0 -0 -0 1 1 1 -1 -1 -1 -2 -2 3 8 3 -1 -1 -0 0 0 0 -0 -0 -0 0 -0 -0 -1 -1 -1 0 1 1 1 0 0 0 0 -0 -1 -1 -1 -1 -0 0 0 0 0 0 0 0 0 0 0 0 -0 -1 -1 -1 -1 -1 -1 -0 -0 -0 0 0 0 0 -0 -1 -1 -2 -2 -1 -1 -1 -1 -1 -1 -1 -1 -1 -1 -1 -1 -1 -1 -1 -1 -2 -2 -1 -1 -1 -1 -1 -1 -1 -1 -2 -2 -2
2 0 -1 -1 2 4 1 -1 -1 -2 -4 -0 6 9 3 -1 -1 -0 0 0 0 0 0 0 0 -0 -0 -0 -0 0 1 1 1 1 0 0 0 -0 -0 -1 -1 -1 -1 -0 0 0 0 0 0 0 0 0 0 1 0 0 -0 -0 -0 -0 -0 -0 0 0 1 1 0 0 0 -0 -1 -0 -1 -1 -1 -0 -0 -0 -0 -1 -1 -1 -1 -1 -1 -1 -1 -1 -1 -1 -2 -2 -2 -1 -1 -1 -1 -1 -1 -1 -1 -2 -2
0 -0 -0 -2 2 5 1 -0 -1 -2 -4 5 9 8 -0 -1 -1 -0 0 0 0 0 0 0 0 0 0 0 0 0 0 0 0 0 0 0 0 -0 -0 -1 -1 -1 -1 -0 -0 0 0 0 0 0 0 0 0 0 0 0 0 0 0 0 0 1 1 1 0 0 0 0 0 0 -0 -0 -0 -0 -0 -0 -0 -0 0 -0 -0 -1 -1 -1 -1 -1 -1 -1 -1 -1 -1 -2 -2 -1 -1 -1 -1 -1 -1 -1 -1 -1 -1
0 -0 -1 -2 0 2 0 -0 -1 -1 -2 7 8 3 -2 -1 -0 -0 0 0 0 0 0 0 0 0 1 0 0 0 0 0 -0 -0 0 0 0 -0 -0 -0 -1 -1 -1 -0 -0 0 0 0 0 0 0 0 0 0 0 0 0 0 0 1 1 1 1 0 -0 -0 -0 0 1 1 1 0 0 0 -0 -0 -0 -0 -0 -0 -0 -0 -0 -1 -1 -1 -1 -1 -1 -1 -1 -1 -2 -1 -1 -1 -1 -1 -1 -1 -1 -1 -1
-1 -1 -2 -1 1 1 -1 -1 -1 -1 -1 3 2 -1 -2 -1 -0 0 0 0 0 0 0 1 1 0 0 1 1 0 0 -0 -0 -0 0 0 0 -0 -0 -0 -0 -0 -0 -0 -0 -0 0 0 0 0 0 0 0 0 0 0 0 0 0 1 0 0 -0 0 0 -0 -1 0 1 0 1 0 0 0 -0 -0 -0 -0 -0 -0 -1 -1 -0 -0 -1 -1 -1 -1 -1 -1 -1 -1 -1 -1 -2 -2 -2 -2 -2 -2 -1 -1 -1
-1 -2 -2 1 1 1 -1 -1 -1 -1 -0 -0 -1 -2 -0 -0 0 0 1 1 1 1 1 1 1 1 1 1 1 0 0 0 0 0 0 0 0 0 -0 -0 -0 -0 -0 -0 -0 -0 -0 0 0 0 0 0 0 0 0 0 0 0 0 0 0 -0 -1 -0 -0 -0 -1 0 0 0 0 0 0 -0 -0 -0 -0 -1 -1 -1 -1 -1 -1 -1 -1 -1 -1 -1 -1 -1 -1 -1 -1 -1 -1 -2 -2 -2 -2 -2 -2 -1 -1
0 1 -1 -0 -0 -1 -1 -1 -1 -1 -1 -2 -3 -2 1 1 1 1 1 1 1 1 1 1 1 1 1 1 1 1 0 0 0 0 0 0 0 0 -0 -0 -0 -0 -0 -0 -0 0 0 -0 0 0 0 0 0 0 0 0 0 0 0 0 0 0 -0 -1 -1 -0 0 0 0 0 0 0 -0 -0 -0 -0 -1 -1 -1 -1 -1 -1 -1 -1 -1 -1 -1 -1 -1 -1 -1 -1 -1 -1 -1 -1 -2 -2 -2 -2 -1 -1 -1
1 2 -1 -1 -1 -1 -1 -1 -1 -2 -2 -0 1 1 0 0 1 1 1 1 1 1 1 1 1 1 1 1 1 1 1 1 1 0 0 0 0 0 -0 -0 -0 -0 -0 -0 -0 0 0 0 0 0 0 0 0 0 0 0 0 0 0 0 0 0 0 -0 -0 -0 0 0 0 0 0 0 -0 -0 -0 -1 -1 -1 -1 -1 -1 -1 -1 -1 -1 -1 -1 -2 -1 -1 -1 -1 -1 -1 -1 -1 -1 -1 -1 -1 -1 -1 -1
-0 -0 -1 -0 -0 -0 -0 -0 -1 -2 -0 3 5 3 -1 -0 0 1 1 1 1 1 1 1 1 1 1 1 1 1 1 1 1 1 1 1 1 1 0 -0 -0 -0 -0 -0 -0 0 0 0 0 0 0 0 0 0 0 1 1 1 0 0 -0 -0 -0 -0 -0 -0 0 0 0 0 0 -0 -0 -0 -0 -0 -0 -1 -1 -1 -1 -1 -1 -1 -1 -1 -1 -1 -1 -1 -1 -1 -1 -1 -1 -1 -1 -1 -1 -1 -1 -1 -1
-1 -1 -0 0 0 0 0 0 -1 -1 1 3 4 2 -1 -0 0 1 1 1 1 1 1 1 1 1 1 1 1 1 1 1 1 1 1 1 1 1 0 0 -0 -0 -0 -0 -0 0 0 0 0 0 0 0 0 0 0 0 1 1 1 1 0 0 0 0 0 0 0 0 0 0 0 0 0 0 0 0 -0 -0 -1 -1 -1 -0 -0 -1 -1 -1 -1 -1 -1 -1 -1 -1 -1 -1 -1 -1 -1 -1 -1 -1 -1 -1 -1
-0 0 0 0 0 0 0 0 0 0 0 1 0 -0 -0 0 0 0 0 1 1 1 1 1 1 1 1 1 1 1 1 1 1 1 1 1 1 1 1 0 -0 -0 -0 -0 -0 0 0 0 0 0 0 0 0 0 0 0 0 0 1 1 1 0 0 0 0 0 0 0 0 0 0 0 0 -0 -0 -0 -1 -1 -1 -1 -1 -0 -0 -0 -0 -0 -1 -1 -1 -1 -1 -1 -1 -1 -1 -1 -1 -1 -1 -1 -1 -1 -1
-0 0 0 1 0 0 0 0 1 1 0 -0 -0 -0 0 0 0 0 0 1 1 1 1 1 1 1 1 0 0 0 0 1 1 1 1 1 1 1 1 0 -0 -0 -0 -0 -0 0 0 1 1 1 0 0 0 0 0 0 0 0 0 0 0 0 -0 0 0 0 1 0 0 0 0 -0 -0 -1 -1 -1 -1 -1 -1 -1 -1 -1 -0 -0 0 0 0 0 0 0 -0 -0 -1 -1 -1 -1 -1 -1 -1 -1 -1 -1 -1
-0 0 0 1 1 1 1 1 1 1 0 0 0 0 0 0 0 0 1 1 1 1 1 1 1 1 1 0 0 -0 0 0 0 1 1 1 1 1 1 0 -0 -0 -0 -0 -0 0 1 1 1 1 0 0 0 0 0 0 0 0 -0 -0 -0 -0 -0 -0 0 0 1 1 0 0 -0 -0 -0 -1 -1 -1 -1 -1 -1 -1 -1 -1 -1 -1 -0 -0 0 0 0 0 1 0 0 -0 -1 -1 -1 -1 -1 -1 -1 -1 -1
-0 0 0 1 1 1 1 1 1 1 1 1 0 0 0 1 1 1 1 1 1 2 2 1 1 1 1 1 0 -0 0 0 0 1 1 1 1 1 1 0 -0 -0 -1 -0 -0 0 1 1 1 1 0 0 0 0 0 0 0 0 0 -0 -0 -0 -0 -0 -0 -0 0 0 1 0 0 -0 -0 -1 -1 -1 -1 -1 -1 -1 -1 -1 -1 -1 -1 -1 -1 -1 -1 -0 -0 0 -0 -0 -0 -1 -1 -1 -1 -1 -1 -1 -1
-0 0 0 1 1 1 1 1 1 1 1 1 0 0 1 1 1 1 1 1 2 2 2 1 1 1 1 1 1 0 0 -0 -0 0 1 1 1 1 1 0 -0 -0 -0 -0 -0 0 0 1 1 1 1 1 1 1 1 0 0 0 0 -0 -0 -0 -0 -0 -0 -0 0 0 0 0 0 0 -0 -0 -1 -1 -1 -1 -1 -1 -1 -1 -1 -1 -1 -1 -2 -2 -2 -2 -2 -2 -1 -1 -1 -1 -0 -0 -0 -1 -1 -1 -1
0 0 1 1 1 1 1 1 1 1 1 1 1 1 1 1 1 1 1 1 1 1 1 1 1 1 1 1 0 0 0 0 0 0 0 1 1 1 1 0 -0 -0 -0 -0 -0 0 0 0 1 1 1 1 1 1 1 0 0 0 0 -0 -0 -0 -0 -0 -0 -0 0 0 0 0 0 0 0 -0 -0 -0 -0 -0 -1 -1 -1 -1 -1 -1 -1 -1 -1 -1 -2 -2 -2 -2 -2 -2 -2 -2 -1 -1 -1 -1 -1 -1 -1
0 0 1 1 1 0 0 1 1 1 1 1 1 1 1 1 1 1 1 1 1 1 1 1 1 1 1 0 0 0 1 1 0 0 0 1 1 1 0 0 0 -0 -0 -0 0 0 0 0 0 1 1 1 1 1 0 0 0 0 0 0 -0 -0 -0 -0 -0 -0 0 0 0 0 0 0 0 0 0 -0 -0 -0 -0 -1 -1 -1 -1 -1 -1 -1 -1 -1 -1 -1 -2 -2 -2 -2 -2 -2 -2 -2 -2 -2 -1 -1 -1
0 0 1 1 1 1 0 1 1 1 1 1 0 0 1 1 1 1 1 1 1 0 0 1 1 1 1 0 0 0 0 1 0 0 0 0 1 1 0 0 0 0 -0 0 0 0 0 0 0 0 1 1 1 1 0 0 0 0 0 -0 -0 -0 0 -0 -0 -0 -0 0 0 0 0 0 0 -0 -0 -0 -0 -0 -0 -1 -1 -1 -1 -1 -1 -1 -1 -1 -1 -1 -1 -2 -2 -2 -2 -2 -2 -2 -2 -2 -2 -2 -1
1 1 1 0 0 0 0 1 1 1 1 0 0 0 0 1 1 1 1 1 0 0 1 1 1 1 1 1 0 0 0 0 0 0 -0 0 1 1 1 0 0 0 -0 0 0 0 0 0 0 0 0 0 0 0 0 0 0 -0 -0 0 0 0 0 -0 -0 -0 -0 0 0 0 0 0 -0 -0 -0 -0 -0 -0 -1 -1 -1 -1 -1 -1 -1 -1 -1 -1 -1 -1 -1 -1 -1 -2 -2 -2 -2 -2 -2 -2 -2 -2 -1
1 1 0 0 0 0 1 1 1 1 0 -0 -0 0 0 1 1 1 1 0 0 0 1 1 1 1 1 0 -0 -0 -0 -0 -0 -0 -0 0 1 1 1 0 0 0 0 0 0 0 0 0 0 0 0 0 0 0 0 0 0 0 -0 0 0 0 0 -0 -0 -0 -0 -0 0 0 0 0 0 -0 -0 -1 -1 -1 -1 -1 -1 -1 -1 -1 -1 -1 -1 -1 -1 -1 -1 -1 -1 -1 -1 -2 -2 -1 -1 -2 -2 -2 -2
1 0 -0 -0 0 1 1 1 0 0 -0 -0 -0 0 0 1 1 1 0 0 0 0 1 1 1 1 0 -0 -0 -0 -0 -0 -0 -0 -0 -0 0 1 1 1 0 0 0 0 0 0 0 0 0 0 0 0 0 0 0 0 0 0 0 0 0 0 -0 -0 -0 -0 -0 -0 0 0 0 0 0 -0 -0 -1 -1 -1 -1 -1 -1 -0 -0 -0 -0 -0 -0 -0 -1 -1 -1 -1 -1 -1 -1 -1 -1 -1 -1 -1 -1 -2 -2
0 -0 -0 -0 0 1 1 0 0 -0 -0 -0 -0 0 1 1 1 1 1 1 1 1 1 1 1 0 -0 -0 -0 -0 -0 -1 -1 -1 -0 -0 0 0 1 1 1 0 0 0 0 0 0 0 0 -0 -0 -0 0 0 0 0 0 0 0 0 0 -0 -0 -0 -0 -0 -0 -0 -0 0 0 0 0 -0 -0 -0 -1 -1 -1 -0 -0 -0 -0 -0 -0 -0 -0 -0 -0 -0 -0 -0 -0 -0 -0 -0 -0 -0 -0 -0 -0 -1 -1
-0 -0 -1 -1 -0 0 1 0 0 -0 -0 -0 0 0 1 1 1 1 1 1 1 1 1 0 0 -0 -1 -1 -1 -0 -0 -1 -1 -1 -1 -0 0 0 1 1 1 1 1 0 0 0 0 0 -0 -0 -0 -0 -0 -0 -0 0 0 0 0 0 0 -0 -0 -0 -1 -1 -1 -1 -0 -0 -0 0 0 -0 -0 -0 -0 -0 -0 -0 0 0 0 0 0 0 0 0 0 -0 -0 -0 -0 0 0 0 0 1 1 1 1 1 0
-0 -0 -1 -1 -0 0 1 0 0 -0 -0 0 0 1 1 1 1 1 1 1 1 1 0 0 -0 -0 -1 -1 -1 -0 -0 -1 -1 -1 -1 -0 0 0 0 1 1 1 1 1 0 0 0 -0 -0 -0 -0 -0 -0 -0 0 0 0 0 0 0 0 0 -0 -0 -1 -1 -1 -1 -1 -1 -0 -0 -0 -0 -0 -0 -0 -0 0 0 0 0 1 1 1 1 1 1 1 1 1 0 0 -0 0 0 1 1 1 1 1 1 1
-0 -0 -0 -0 0 0 0 0 0 0 0 0 1 1 1 1 1 1 1 1 1 1 0 -0 -0 -1 -1 -1 -1 -1 -1 -1 -1 -1 -1 -0 0 0 0 0 0 1 1 1 0 0 -0 -0 -0 -0 -0 -0 -0 0 0 0 -0 -0 -0 0 0 0 -0 -0 -0 -0 -1 -1 -1 -0 -0 -0 -0 -0 -0 -0 0 0 0 0 1 1 1 1 1 1 1 1 1 1 1 1 0 0 -0 0 0 1 1 1 1 1 1
-1 -0 0 0 0 -0 -0 0 1 1 1 1 1 1 1 1 1 1 1 1 1 1 0 -0 -0 -0 -1 -1 -1 -1 -1 -1 -0 -0 -0 -0 -0 0 0 0 0 0 1 1 0 0 -0 -0 -0 -1 -1 -0 -0 0 0 0 0 -0 -0 -0 -0 -0 -0 0 -0 -0 -0 -0 -0 -0 -0 -0 -0 -0 0 0 0 0 0 1 1 1 1 1 1 1 1 1 1 2 2 2 1 1 0 0 -0 0 1 1 1 1 1
-1 -0 0 0 0 -0 -0 1 1 1 1 1 1 1 1 1 1 1 1 1 1 0 -0 -0 -0 -0 -1 -1 -1 -1 -1 -0 -0 -0 -0 -1 -0 -0 0 0 0 0 0 0 0 0 -0 -0 -0 -1 -1 -0 -0 0 0 0 -0 -0 -0 -0 -1 -0 -0 0 0 0 0 0 0 0 -0 -0 -0 -0 0 0 0 0 0 1 1 1 1 1 1 1 1 1 1 1 1 2 2 2 1 1 0 0 0 0 1 1 1
-1 0 1 1 0 -0 -0 0 1 1 1 1 1 1 1 1 1 1 1 1 0 -0 -0 -0 -0 -0 -0 -0 0 0 0 0 -0 -0 -1 -1 -1 -1 -0 0 0 0 0 0 0 0 0 -0 -0 -1 -1 -0 -0 0 0 -0 -0 -0 -1 -1 -1 -0 0 0 1 1 1 1 1 0 0 0 -0 -0 -0 0 0 0 1 1 1 1 1 1 1 1 1 1 1 1 1 2 2 2 2 2 1 1 1 1 1 1 1
-1 -0 0 0 -0 -0 -0 0 1 1 1 1 1 1 1 1 1 1 1 1 -0 -0 -0 -0 -1 -1 -1 -0 0 1 1 0 -0 -1 -1 -1 -1 -1 -1 -0 -0 0 0 0 0 0 -0 -0 -0 -0 -0 -0 -0 -0 -0 -0 -0 -1 -1 -1 -1 -0 -0 0 1 1 1 1 1 1 0 0 0 0 0 0 0 1 1 1 1 1 1 1 1 1 2 1 1 1 2 2 2 3 3 3 2 2 2 2 2 2 2
-1 -1 -0 -1 -1 -1 -0 0 0 0 0 1 1 1 1 1 1 1 1 -0 -0 -1 -1 -0 -0 -0 -0 0 0 0 1 0 -0 -1 -1 -1 -1 -1 -1 -1 -1 -0 -0 -0 -0 -0 -0 -0 -0 -0 -0 0 0 0 0 0 -0 -1 -1 -1 -1 -1 -1 0 1 1 1 1 1 0 0 0 0 0 0 -0 0 0 1 1 1 1 1 1 1 2 2 2 1 1 2 2 3 3 4 4 3 3 3 3 3 3 3
-1 -1 -1 -1 -1 -1 -0 0 0 -0 -0 0 0 0 0 1 1 0 -0 -0 -0 -0 -0 0 -0 -0 -0 0 0 0 0 0 0 -0 -0 -0 -1 -1 -1 -1 -1 -1 -1 -1 -1 -1 -1 -1 -1 -1 -0 0 1 1 1 1 0 -0 -1 -0 -1 -1 -1 0 1 1 1 1 0 -0 -0 -0 -0 -0 -0 -0 -0 -0 0 1 1 1 2 2 2 2 2 2 2 2 2 2 3 4 4 4 4 4 4 4 4 4 4
-1 -1 -1 -0 -0 -0 0 0 -0 -1 -1 -0 -0 0 0 1 1 0 0 0 0 0 1 0 0 -0 -0 -0 0 0 1 1 1 0 0 -0 -1 -1 -1 -1 -1 -1 -1 -1 -1 -1 -1 -1 -1 -1 -1 -0 1 1 2 1 1 0 0 0 -0 -0 0 1 2 2 1 0 -0 -0 -0 -0 0 0 0 0 0 0 1 1 2 2 3 3 3 3 3 3 2 2 2 2 3 3 4 4 4 4 4 4 4 4 5
-1 -0 -0 0 0 -0 0 0 -0 -1 -1 -1 -0 1 1 1 1 1 1 1 1 1 1 0 -0 -0 -1 -0 0 1 1 1 1 0 -0 -1 -1 -1 -0 -1 -1 -1 -1 -1 -1 -2 -2 -2 -2 -2 -1 -1 -0 1 1 1 0 0 1 1 0 0 1 2 2 2 1 0 0 0 0 1 1 1 2 2 2 2 2 3 3 3 3 3 3 3 3 3 3 2 2 2 3 3 3 4 4 4 4 4 4 4 4
-1 -1 -1 -0 -0 -0 -0 -0 -0 -1 -1 -0 1 1 2 2 1 1 0 0 0 0 0 -0 -1 -1 -1 -0 0 1 1 1 0 -0 -1 -1 -1 -1 -1 -1 -1 -0 -1 -1 -1 -2 -3 -3 -3 -2 -2 -1 -1 -0 -0 -0 -0 -0 1 0 0 1 2 3 3 2 1 1 1 1 1 2 3 3 3 3 3 3 3 3 2 2 2 2 2 2 2 2 2 2 2 2 2 2 3 3 3 3 4 3 3 3 3
-1 -1 -1 -1 -1 -0 -0 0 -0 -0 -0 1 1 1 2 1 0 -0 -1 -1 -0 -0 -0 -1 -1 -1 -0 0 0 1 1 0 -0 -0 -1 -2 -1 0 0 -1 -2 -2 -2 -2 -1 -1 -1 -3 -3 -2 -2 -1 -1 -1 -1 -1 -1 -0 0 0 0 1 2 3 3 2 2 1 2 2 2 3 3 3 2 2 2 2 2 2 1 1 2 2 2 2 2 2 2 2 2 2 2 2 2 3 3 4 4 4 3 2 2
-1 -1 -1 -0 -0 -0 0 1 1 0 1 1 1 1 1 0 -0 -1 -1 -1 -0 -0 -0 -0 -0 0 1 0 0 0 0 0 -0 -1 -1 -1 -0 1 1 0 -1 -3 -7 -5 -3 -2 -1 -1 -1 -1 -1 -1 -1 -1 -0 -1 -0 -0 1 1 1 1 2 2 2 2 2 1 2 3 3 3 3 2 1 1 1 1 1 1 1 1 2 2 2 1 1 1 1 1 1 1 1 2 2 3 3 3 3 3 2 1 1
-1 -1 -0 -0 0 1 1 1 1 1 1 0 0 0 0 -0 -1 -1 -1 -1 -1 -1 -0 -0 0 1 1 0 0 0 1 0 -0 -0 -0 -0 0 1 1 1 0 -2 -4 -5 -7 -8 -5 -2 -1 -1 1 0 0 0 1 0 0 1 1 1 1 1 1 1 2 2 1 1 3 3 3 3 3 2 1 1 1 1 2 2 2 2 2 2 2 2 2 2 2 1 1 1 1 2 2 2 3 3 3 3 2 1 -1
-1 -1 -1 0 1 1 1 1 1 1 0 0 0 0 0 -0 -1 -1 -1 -1 -1 -1 -1 0 0 0 -0 -0 -0 0 1 1 0 0 -0 1 1 1 1 -0 -1 -1 -1 -1 -4 -8 -5 -2 -2 -2 0 1 1 1 1 1 1 1 1 0 0 1 1 1 1 1 1 1 2 3 3 3 3 3 2 1 1 2 2 2 2 2 2 2 2 2 2 2 2 2 2 1 1 0 -1 -0 1 2 3 3 1 -0 -2
-1 -1 0 1 1 1 1 1 1 1 0 0 0 0 -0 -0 -1 -1 -1 -1 -0 0 0 0 0 0 -0 -1 -0 0 1 1 1 0 -0 1 1 2 2 -0 -1 -2 -2 -2 -2 -2 0 -2 -3 -3 -1 1 1 1 2 1 1 1 1 0 0 -0 0 0 0 0 0 1 2 2 2 2 2 2 2 2 1 1 1 1 1 1 1 1 1 1 1 2 3 3 2 1 -0 -1 -2 -3 -3 -2 -0 1 1 1 1
0 0 1 1 1 1 1 2 2 1 1 0 -0 -1 -1 -0 -0 0 0 1 1 1 1 1 0 0 0 0 0 1 1 1 1 0 0 0 1 1 2 1 0 -1 -2 -1 0 1 1 -2 -4 -5 -3 1 1 1 0 1 1 0 0 0 0 -0 -0 -0 -0 0 0 1 2 2 2 2 1 1 1 1 1 0 1 0 0 -0 -0 -1 -1 -1 -1 -0 0 1 1 0 0 1 2 1 1 -0 0 1 2 3 3
1 1 1 1 1 1 2 2 2 1 1 -0 -1 -1 -1 0 1 1 1 1 1 1 1 1 1 1 1 1 1 1 1 1 1 1 0 0 0 1 1 1 1 1 -0 -1 -0 -1 -4 -1 -1 -3 -8 -3 0 1 -1 -0 0 1 1 0 -0 -0 -0 0 1 1 1 1 1 1 1 1 1 1 0 0 0 0 0 1 0 -0 -1 -1 -2 -2 -3 -3 -3 -2 -2 -2 -1 1 3 3 3 3 3 4 4 3 2
1 1 1 1 1 1 1 1 1 1 1 1 0 0 0 0 0 -0 -0 -0 0 1 2 1 1 1 1 1 1 1 -0 -0 1 1 1 1 0 0 0 1 1 1 2 1 0 -1 -3 -1 1 -0 -7 -9 -6 -1 3 1 -0 0 1 1 0 0 0 1 1 1 1 1 1 0 1 1 1 0 -1 -0 -0 0 1 2 2 2 1 1 1 1 -0 -2 -3 -3 -3 -1 -1 -0 1 2 2 2 4 4 3 2 2
1 1 1 1 1 1 1 1 1 1 1 1 1 1 -0 -1 -1 -1 0 1 2 3 3 1 1 1 2 1 1 0 -1 -1 1 2 2 1 0 -0 0 1 1 1 1 1 1 2 2 2 0 -0 0 -7 -12 -11 -0 2 1 0 1 1 1 1 1 1 1 0 0 0 -0 -0 -1 0 1 0 -0 -0 0 1 2 3 3 3 3 3 3 3 3 2 1 -1 -1 -1 -0 -0 0 1 1 2 3 3 2 2 2
1 1 1 1 1 1 1 1 1 1 1 2 1 0 -2 -2 -1 1 1 2 3 3 2 1 1 1 1 1 0 -0 -1 -0 1 2 2 1 -0 -0 1 1 1 1 1 1 1 1 2 3 3 3 3 1 -5 -13 -16 -5 1 3 1 1 -0 -1 -0 1 0 -0 -1 -0 -1 -1 -1 -0 1 1 1 1 1 1 1 2 2 2 2 1 1 1 2 2 2 1 0 0 0 0 0 -0 0 1 2 2 2 1 2
2 1 1 0 0 0 1 1 1 1 1 1 0 -1 -2 -2 -0 1 1 2 2 3 3 2 2 1 0 0 0 -0 -0 1 1 1 1 1 0 0 1 1 1 1 1 1 0 0 1 1 3 4 6 5 3 -2 -13 -12 -6 0 1 2 1 -1 -2 -1 0 0 -0 -0 -0 -0 -0 1 2 2 2 1 0 -0 -0 1 1 1 1 0 0 0 1 1 1 1 1 1 1 1 1 1 1 1 1 1 1 1 1
Height
1518 1518 1518 1519 1519 1520 1520 1521 1521 1521 1522 1522 1523 1523 1523 1523 1524 1524 1524 1525 1525 1525 1525 1526 1526 1527 1527 1527 1528 1528 1528 1528 1529 1529 1530 1530 1530 1530 1531 1531 1531 1531 1532 1532 1532 1533 1533 1533 1533 1533 1533 1533 1533 1533 1533 1533 1533 1533 1533 1533 1533 1533 1533 1535 1535 1534 1533 1533 1533 1533 1533 1532 1532 1533 1533 1533 1533 1533 1533 1532 1532 1532 1532 1532 1532 1532 1532 1532 1532 1532 1531 1531 1531 1531 1531 1531 1530 1530 1530 1530 1530 1529 1529
1518 1518 1518 1518 1519 1520 1520 1521 1521 1522 1522 1522 1523 1523 1523 1523 1524 1524 1524 1525 1525 1525 1525 1526 1526 1527 1527 1528 1528 1528 1529 1529 1529 1529 1530 1530 1530 1531 1531 1531 1531 1532 1532 1532 1533 1533 1533 1533 1533 1533 1533 1533 1533 1533 1533 1533 1533 1533 1533 1533 1533 1533 1534 1535 1535 1534 1534 1533 1533 1533 1533 1533 1533 1533 1533 1533 1533 1533 1533 1533 1533 1532 1532 1532 1532 1532 1532 1532 1532 1532 1531 1531 1531 1531 1531 1530 1530 1530 1530 1530 1530 1529 1529
1517 1517 1518 1519 1519 1520 1520 1521 1521 1522 1522 1522 1523 1523 1523 1523 1524 1524 1524 1525 1525 1525 1525 1526 1526 1527 1527 1528 1528 1528 1529 1529 1529 1530 1530 1530 1531 1531 1531 1531 1532 1532 1532 1533 1533 1533 1533 1533 1533 1533 1534 1534 1533 1534 1534 1534 1534 1534 1534 1534 1534 1534 1535 1535 1534 1534 1534 1534 1534 1533 1533 1533 1533 1533 1533 1533 1533 1533 1533 1533 1533 1533 1533 1533 1533 1533 1533 1532 1532 1532 1532 1532 1531 1531 1531 1530 1530 1530 1530 1530 1530 1530 1529
1517 1517 1518 1519 1519 1520 1520 1521 1521 1521 1522 1522 1522 1523 1523 1524 1524 1524 1525 1525 1525 1525 1525 1526 1526 1527 1527 1528 1528 1529 1529 1529 1530 1530 1530 1531 1531 1531 1531 1532 1532 1532 1533 1533 1533 1533 1534 1534 1534 1534 1534 1534 1534 1534 1534 1534 1534 1534 1534 1534 1534 1535 1535 1535 1535 1534 1534 1534 1534 1534 1534 1533 1533 1533 1533 1533 1533 1533 1533 1533 1534 1534 1534 1534 1534 1533 1533 1533 1533 1533 1532 1532 1532 1531 1531 1531 1530 1530 1530 1530 1530 1530 1529
1517 1517 1518 1519 1519 1520 1520 1520 1521 1521 1521 1522 1522 1523 1523 1524 1524 1524 1525 1525 1525 1525 1526 1526 1527 1527 1528 1528 1528 1529 1529 1529 1530 1530 1530 1531 1531 1531 1532 1532 1532 1533 1533 1533 1533 1534 1534 1534 1534 1534 1534 1534 1534 1534 1534 1534 1534 1534 1534 1535 1535 1535 1536 1535 1535 1535 1534 1534 1534 1534 1534 1533 1533 1533 1533 1533 1533 1533 1533 1534 1534 1534 1534 1534 1534 1534 1533 1533 1533 1533 1533 1532 1532 1532 1531 1531 1531 1530 1530 1530 1530 1530 1529
1517 1517 1518 1519 1519 1520 1520 1520 1521 1521 1521 1522 1523 1523 1523 1524 1524 1524 1525 1525 1525 1525 1526 1526 1527 1527 1528 1528 1529 1529 1529 1529 1530 1530 1531 1531 1531 1532 1532 1532 1533 1533 1533 1533 1534 1534 1534 1534 1534 1534 1534 1534 1534 1535 1535 1534 1534 1534 1535 1535 1535 1536 1535 1535 1535 1535 1535 1534 1534 1534 1534 1534 1534 1534 1534 1534 1534 1534 1534 1534 1534 1534 1534 1534 1534 1533 1533 1533 1533 1533 1532 1532 1532 1532 1531 1531 1531 1530 1530 1530 1530 1530 1529
1517 1517 1518 1518 1519 1519 1520 1520 1520 1521 1522 1522 1523 1523 1524 1524 1524 1524 1525 1525 1525 1525 1526 1526 1527 1527 1528 1528 1529 1529 1529 1530 1530 1530 1531 1531 1532 1532 1532 1532 1533 1533 1533 1534 1534 1534 1534 1534 1534 1534 1535 1535 1535 1535 1535 1535 1535 1535 1535 1535 1536 1536 1535 1535 1535 1535 1535 1535 1534 1534 1534 1534 1534 1534 1534 1534 1534 1534 1534 1534 1534 1534 1534 1534 1534 1533 1533 1533 1533 1533 1532 1532 1532 1532 1531 1531 1531 1530 1530 1530 1530 1530 1529
1517 1517 1518 1518 1519 1519 1520 1520 1520 1521 1522 1522 1523 1524 1524 1524 1525 1525 1525 1525 1525 1526 1526 1526 1527 1527 1528 1528 1529 1529 1529 1530 1530 1531 1531 1531 1532 1532 1532 1533 1533 1533 1533 1534 1534 1534 1534 1534 1535 1535 1535 1535 1535 1535 1535 1535 1535 1535 1535 1535 1535 1536 1536 1536 1536 1535 1535 1535 1535 1534 1534 1534 1534 1534 1534 1534 1534 1534 1534 1534 1534 1534 1534 1534 1534 1534 1533 1533 1533 1533 1532 1532 1532 1532 1531 1531 1531 1531 1530 1530 1530 1530 1529
1516 1517 1518 1518 1519 1519 1520 1520 1521 1521 1522 1523 1524 1524 1525 1525 1525 1525 1525 1525 1526 1526 1526 1526 1527 1527 1528 1528 1529 1529 1529 1530 1530 1531 1531 1532 1532 1532 1533 1533 1533 1533 1534 1534 1534 1534 1535 1535 1535 1535 1535 1535 1535 1535 1535 1535 1535 1535 1535 1535 1536 1536 1536 1536 1536 1536 1535 1535 1535 1535 1535 1534 1534 1534 1534 1534 1534 1534 1534 1534 1534 1534 1534 1534 1534 1534 1533 1533 1533 1533 1533 1532 1532 1532 1532 1531 1531 1531 1530 1530 1530 1530 1530
1516 1517 1517 1518 1519 1519 1520 1520 1521 1521 1522 1523 1525 1525 1525 1525 1525 1525 1525 1526 1526 1526 1526 1527 1527 1528 1528 1528 1529 1529 1530 1530 1530 1531 1531 1532 1532 1532 1533 1533 1533 1534 1534 1534 1534 1535 1535 1535 1535 1535 1535 1535 1535 1535 1535 1536 1536 1536 1536 1536 1536 1536 1536 1536 1536 1536 1535 1535 1535 1535 1535 1535 1534 1534 1534 1534 1534 1534 1534 1534 1534 1534 1534 1534 1534 1534 1534 1533 1533 1533 1533 1533 1532 1532 1532 1532 1531 1531 1531 1530 1530 1530 1530
1516 1517 1517 1518 1519 1519 1520 1520 1521 1522 1523 1524 1525 1525 1525 1525 1525 1525 1525 1526 1526 1526 1527 1527 1527 1528 1528 1529 1529 1529 1530 1530 1531 1531 1531 1532 1532 1533 1533 1533 1533 1534 1534 1534 1535 1535 1535 1535 1535 1535 1535 1535 1535 1536 1536 1536 1536 1536 1536 1536 1536 1537 1537 1537 1536 1536 1536 1536 1535 1535 1535 1535 1535 1535 1534 1534 1534 1534 1534 1534 1534 1534 1534 1534 1534 1534 1534 1534 1533 1533 1533 1533 1533 1532 1532 1532 1531 1531 1531 1531 1530 1530 1530
1516 1516 1517 1518 1518 1519 1520 1520 1521 1522 1523 1524 1525 1525 1525 1525 1525 1525 1525 1525 1526 1526 1527 1527 1527 1528 1528 1529 1529 1530 1530 1530 1531 1531 1532 1532 1532 1533 1533 1533 1534 1534 1534 1535 1535 1535 1535 1535 1535 1536 1536 1536 1536 1536 1536 1536 1536 1536 1537 1537 1537 1537 1537 1537 1537 1537 1536 1536 1536 1535 1535 1535 1535 1535 1535 1535 1535 1535 1535 1535 1535 1535 1534 1534 1534 1534 1534 1534 1534 1533 1533 1533 1533 1532 1532 1532 1532 1531 1531 1531 1530 1530 1530
1516 1516 1517 1518 1518 1519 1520 1521 1521 1522 1522 1523 1524 1525 1525 1525 1525 1525 1525 1526 1526 1526 1527 1527 1527 1528 1528 1529 1529 1530 1530 1530 1531 1531 1532 1532 1532 1533 1533 1534 1534 1534 1534 1535 1535 1535 1535 1535 1536 1536 1536 1536 1536 1536 1536 1536 1536 1537 1537 1537 1537 1537 1538 1537 1537 1537 1537 1536 1536 1536 1536 1535 1535 1535 1535 1535 1535 1535 1535 1535 1535 1535 1535 1535 1534 1534 1534 1534 1534 1534 1533 1533 1533 1533 1532 1532 1532 1532 1531 1531 1531 1530 1530
1515 1516 1517 1518 1518 1519 1520 1520 1521 1521 1522 1523 1524 1524 1524 1524 1525 1525 1525 1526 1526 1526 1527 1527 1528 1528 1529 1529 1529 1530 1530 1531 1531 1531 1532 1532 1533 1533 1533 1534 1534 1534 1535 1535 1535 1535 1535 1536 1536 1536 1536 1536 1536 1536 1536 1536 1537 1537 1537 1537 1538 1538 1538 1538 1537 1537 1537 1537 1537 1536 1536 1536 1536 1535 1535 1535 1535 1535 1535 1535 1535 1535 1535 1535 1535 1534 1534 1534 1534 1534 1533 1533 1533 1533 1533 1532 1532 1532 1532 1531 1531 1531 1530
1516 1516 1517 1518 1518 1519 1520 1520 1520 1521 1522 1523 1524 1524 1524 1524 1525 1525 1525 1526 1526 1526 1527 1527 1528 1528 1529 1529 1529 1530 1530 1531 1531 1532 1532 1532 1533 1533 1534 1534 1534 1535 1535 1535 1535 1535 1536 1536 1536 1536 1536 1536 1536 1536 1536 1536 1537 1537 1537 1538 1538 1538 1538 1538 1538 1537 1537 1537 1537 1537 1537 1536 1536 1536 1536 1535 1535 1535 1535 1535 1535 1535 1535 1535 1535 1535 1534 1534 1534 1534 1534 1533 1533 1533 1533 1533 1533 1532 1532 1532 1531 1531 1530
1516 1517 1517 1518 1518 1519 1520 1520 1520 1521 1522 1523 1524 1525 1524 1524 1525 1525 1525 1526 1526 1526 1527 1527 1528 1528 1529 1529 1530 1530 1530 1531 1532 1532 1532 1533 1533 1533 1534 1534 1534 1535 1535 1535 1535 1536 1536 1536 1536 1536 1536 1536 1536 1536 1537 1537 1537 1537 1538 1538 1538 1538 1538 1538 1538 1538 1538 1538 1537 1537 1537 1537 1537 1536 1536 1536 1536 1536 1535 1535 1535 1535 1535 1535 1535 1535 1535 1534 1534 1534 1534 1534 1533 1533 1533 1533 1533 1532 1532 1532 1531 1531 1530
1517 1517 1517 1518 1518 1519 1520 1520 1520 1521 1522 1523 1524 1525 1524 1525 1525 1525 1525 1526 1526 1527 1527 1527 1528 1528 1529 1529 1530 1530 1531 1531 1532 1532 1533 1533 1533 1534 1534 1534 1535 1535 1535 1535 1535 1536 1536 1536 1536 1536 1536 1537 1537 1537 1537 1537 1537 1537 1538 1538 1538 1538 1538 1538 1538 1538 1538 1538 1538 1538 1538 1537 1537 1537 1536 1536 1536 1536 1536 1536 1535 1535 1535 1535 1535 1535 1535 1535 1534 1534 1534 1534 1533 1533 1533 1533 1533 1532 1532 1531 1531 1531 1530
1517 1517 1517 1518 1519 1519 1519 1520 1520 1521 1522 1523 1524 1525 1524 1524 1525 1525 1525 1526 1526 1527 1527 1528 1528 1528 1529 1530 1530 1531 1531 1532 1532 1532 1533 1533 1533 1534 1534 1534 1535 1535 1535 1535 1536 1536 1536 1536 1536 1537 1537 1537 1537 1537 1537 1537 1537 1538 1538 1538 1538 1539 1539 1539 1539 1538 1538 1538 1538 1538 1538 1537 1537 1537 1537 1537 1537 1536 1536 1536 1536 1536 1535 1535 1535 1535 1535 1535 1535 1534 1534 1534 1534 1533 1533 1533 1533 1532 1532 1532 1531 1531 1530
1516 1516 1517 1517 1519 1520 1519 1520 1520 1521 1521 1523 1525 1525 1524 1524 1525 1525 1525 1526 1526 1527 1527 1528 1528 1529 1529 1530 1530 1531 1531 1532 1532 1532 1533 1533 1534 1534 1534 1535 1535 1535 1535 1535 1536 1536 1536 1536 1537 1537 1537 1537 1537 1537 1538 1538 1538 1538 1538 1538 1539 1539 1539 1539 1539 1539 1538 1538 1538 1538 1538 1538 1538 1537 1537 1537 1537 1537 1537 1536 1536 1536 1536 1535 1535 1535 1535 1535 1535 1534 1534 1534 1534 1534 1533 1533 1533 1532 1532 1532 1531 1531 1530
1516 1516 1517 1517 1518 1519 1519 1520 1520 1521 1522 1523 1524 1524 1524 1524 1525 1525 1525 1526 1526 1527 1527 1528 1528 1529 1530 1530 1530 1531 1531 1532 1532 1533 1533 1533 1534 1534 1534 1535 1535 1535 1535 1535 1536 1536 1536 1537 1537 1537 1537 1537 1537 1537 1538 1538 1538 1538 1538 1539 1539 1539 1539 1539 1539 1539 1539 1539 1538 1538 1538 1538 1538 1538 1538 1537 1537 1537 1537 1537 1537 1536 1536 1536 1536 1535 1535 1535 1535 1535 1534 1534 1534 1534 1533 1533 1533 1532 1532 1532 1531 1531 1530
1515 1516 1516 1517 1518 1519 1519 1520 1520 1521 1521 1522 1522 1522 1523 1524 1525 1525 1525 1526 1526 1527 1528 1528 1529 1529 1530 1530 1531 1531 1532 1532 1532 1533 1533 1534 1534 1534 1534 1535 1535 1535 1535 1536 1536 1536 1537 1537 1537 1537 1537 1537 1538 1538 1538 1538 1538 1538 1539 1539 1539 1539 1539 1540 1540 1539 1539 1539 1539 1538 1538 1538 1538 1538 1538 1538 1538 1537 1537 1537 1537 1537 1536 1536 1536 1536 1535 1535 1535 1535 1535 1534 1534 1534 1533 1533 1533 1532 1532 1532 1531 1531 1530
1515 1515 1516 1518 1519 1519 1519 1520 1520 1521 1521 1522 1522 1522 1523 1524 1525 1525 1526 1526 1527 1527 1528 1529 1529 1529 1530 1530 1531 1531 1532 1532 1533 1533 1533 1534 1534 1534 1534 1535 1535 1535 1535 1536 1536 1536 1537 1537 1537 1537 1538 1538 1538 1538 1538 1538 1538 1539 1539 1539 1539 1539 1540 1540 1540 1540 1540 1539 1539 1539 1539 1538 1538 1538 1538 1538 1538 1538 1537 1537 1537 1537 1537 1536 1536 1536 1536 1535 1535 1535 1535 1535 1534 1534 1534 1533 1533 1532 1532 1532 1531 1531 1531
1515 1516 1516 1517 1518 1519 1519 1520 1520 1520 1521 1522 1522 1523 1524 1524 1525 1525 1526 1526 1527 1528 1528 1529 1529 1530 1530 1530 1531 1532 1532 1532 1533 1533 1533 1534 1534 1534 1534 1535 1535 1535 1535 1536 1536 1536 1537 1537 1537 1538 1538 1538 1538 1538 1538 1538 1539 1539 1539 1539 1539 1539 1539 1540 1540 1540 1539 1539 1539 1539 1539 1539 1539 1539 1538 1538 1538 1538 1538 1538 1537 1537 1537 1537 1536 1536 1536 1536 1535 1535 1535 1535 1534 1534 1534 1533 1533 1533 1532 1532 1531 1531 1531
1516 1516 1517 1517 1518 1518 1519 1519 1520 1520 1521 1521 1522 1523 1524 1525 1525 1525 1526 1527 1527 1528 1528 1529 1529 1530 1530 1531 1531 1532 1532 1532 1533 1533 1533 1534 1534 1534 1534 1535 1535 1535 1535 1536 1536 1536 1537 1537 1537 1538 1538 1538 1538 1538 1538 1539 1539 1539 1539 1539 1539 1539 1539 1540 1540 1540 1540 1539 1539 1539 1539 1539 1539 1539 1539 1539 1538 1538 1538 1538 1538 1537 1537 1537 1537 1536 1536 1536 1535 1535 1535 1535 1535 1534 1534 1534 1533 1533 1532 1532 1532 1531 1531
1515 1516 1516 1517 1518 1518 1519 1519 1520 1520 1521 1522 1523 1524 1524 1525 1525 1526 1526 1527 1527 1528 1528 1529 1529 1530 1530 1531 1531 1532 1532 1532 1533 1533 1533 1534 1534 1534 1534 1535 1535 1535 1535 1536 1536 1536 1537 1537 1538 1538 1538 1538 1538 1538 1539 1539 1539 1539 1539 1539 1540 1540 1540 1540 1540 1540 1540 1540 1539 1539 1539 1539 1539 1539 1539 1539 1539 1538 1538 1538 1538 1537 1537 1537 1537 1536 1536 1536 1536 1535 1535 1535 1535 1535 1534 1534 1533 1533 1533 1532 1532 1531 1531
1515 1516 1516 1517 1518 1518 1519 1520 1520 1520 1521 1522 1523 1524 1524 1525 1525 1526 1526 1527 1527 1528 1528 1529 1529 1530 1530 1531 1531 1532 1532 1532 1533 1533 1533 1534 1534 1534 1534 1535 1535 1535 1535 1536 1536 1536 1537 1537 1538 1538 1538 1538 1538 1539 1539 1539 1539 1540 1540 1540 1540 1540 1540 1540 1540 1540 1540 1540 1540 1539 1539 1539 1539 1539 1539 1539 1539 1539 1538 1538 1538 1538 1537 1537 1537 1537 1536 1536 1536 1536 1535 1535 1535 1535 1534 1534 1533 1533 1533 1532 1532 1531 1531
1515 1516 1516 1517 1517 1518 1519 1520 1520 1520 1521 1522 1523 1523 1524 1525 1525 1526 1526 1527 1527 1528 1528 1529 1530 1530 1530 1531 1531 1532 1532 1532 1533 1533 1533 1534 1534 1534 1535 1535 1535 1535 1535 1536 1536 1537 1537 1537 1538 1538 1538 1538 1539 1539 1539 1539 1539 1540 1540 1540 1540 1540 1540 1540 1540 1540 1540 1540 1540 1540 1539 1539 1539 1539 1539 1539 1539 1539 1538 1538 1538 1538 1538 1537 1537 1537 1537 1536 1536 1536 1535 1535 1535 1535 1534 1534 1533 1533 1532 1532 1532 1531 1530
1515 1515 1516 1517 1517 1518 1519 1519 1520 1520 1521 1522 1523 1523 1524 1525 1525 1526 1526 1527 1527 1528 1528 1529 1530 1530 1530 1531 1531 1531 1532 1532 1533 1533 1533 1534 1534 1534 1535 1535 1535 1535 1535 1536 1536 1537 1537 1537 1538 1538 1538 1538 1539 1539 1539 1539 1539 1539 1540 1540 1540 1540 1540 1540 1540 1540 1540 1540 1540 1539 1539 1539 1539 1539 1539 1539 1539 1539 1538 1538 1538 1538 1538 1537 1537 1537 1537 1536 1536 1536 1536 1535 1535 1535 1534 1534 1533 1533 1532 1532 1531 1531 1530
1515 1515 1516 1516 1517 1518 1519 1519 1520 1520 1521 1522 1523 1523 1524 1525 1525 1526 1526 1527 1527 1528 1529 1529 1530 1530 1530 1531 1531 1531 1532 1532 1533 1533 1533 1534 1534 1534 1535 1535 1535 1535 1535 1536 1536 1537 1537 1537 1538 1538 1538 1538 1539 1539 1539 1539 1539 1539 1540 1540 1540 1540 1540 1540 1540 1540 1540 1540 1540 1539 1539 1539 1539 1539 1539 1539 1539 1539 1539 1538 1538 1538 1538 1538 1537 1537 1537 1537 1536 1536 1536 1535 1535 1535 1534 1534 1533 1533 1532 1532 1531 1531 1530
1515 1515 1516 1516 1517 1518 1518 1519 1520 1520 1521 1522 1523 1523 1524 1525 1525 1526 1526 1527 1527 1528 1529 1529 1530 1530 1530 1531 1531 1531 1532 1532 1533 1533 1533 1534 1534 1534 1535 1535 1535 1535 1535 1536 1536 1537 1537 1537 1538 1538 1538 1538 1539 1539 1539 1539 1539 1539 1539 1540 1540 1540 1540 1540 1540 1540 1540 1540 1540 1540 1539 1539 1539 1539 1539 1539 1539 1539 1539 1538 1538 1538 1538 1538 1537 1537 1537 1537 1536 1536 1536 1535 1535 1535 1534 1534 1533 1533 1532 1531 1531 1530 1530
1515 1515 1515 1516 1517 1517 1518 1519 1520 1520 1521 1522 1522 1523 1524 1525 1525 1526 1526 1527 1527 1528 1529 1529 1529 1530 1530 1530 1531 1531 1532 1532 1533 1533 1533 1534 1534 1534 1535 1535 1535 1535 1535 1536 1536 1537 1537 1537 1538 1538 1538 1538 1539 1539 1539 1539 1539 1539 1539 1539 1539 1539 1539 1539 1539 1539 1539 1539 1539 1539 1539 1539 1539 1539 1539 1539 1539 1539 1538 1538 1538 1538 1538 1538 1537 1537 1537 1536 1536 1536 1535 1535 1535 1535 1534 1534 1533 1532 1532 1531 1531 1530 1530
1514 1515 1515 1516 1517 1517 1518 1519 1520 1520 1521 1522 1522 1523 1524 1525 1525 1525 1526 1527 1527 1528 1528 1529 1529 1530 1530 1530 1531 1531 1532 1532 1533 1533 1533 1534 1534 1534 1535 1535 1535 1535 1535 1536 1536 1536 1537 1537 1537 1538 1538 1538 1539 1539 1539 1539 1539 1539 1539 1539 1539 1539 1539 1539 1539 1539 1539 1539 1539 1539 1539 1539 1539 1539 1539 1539 1539 1538 1538 1538 1538 1538 1538 1537 1537 1537 1537 1536 1536 1535 1535 1535 1535 1534 1534 1533 1533 1532 1531 1531 1530 1530 1529
1514 1515 1515 1516 1517 1517 1518 1519 1520 1520 1521 1522 1522 1523 1524 1524 1525 1525 1526 1526 1527 1527 1528 1528 1529 1529 1530 1530 1531 1531 1532 1532 1533 1533 1533 1534 1534 1534 1535 1535 1535 1535 1535 1536 1536 1536 1537 1537 1537 1538 1538 1538 1538 1539 1539 1539 1539 1539 1539 1539 1539 1539 1539 1539 1539 1539 1539 1539 1539 1539 1539 1539 1539 1539 1539 1539 1539 1538 1538 1538 1538 1538 1537 1537 1537 1537 1536 1536 1536 1535 1535 1534 1534 1533 1533 1532 1532 1531 1531 1530 1530 1529 1529
1514 1515 1515 1516 1517 1517 1518 1519 1520 1520 1521 1521 1522 1523 1523 1524 1525 1525 1525 1526 1526 1527 1528 1528 1529 1529 1530 1530 1531 1531 1532 1532 1532 1533 1533 1534 1534 1534 1534 1535 1535 1535 1535 1536 1536 1536 1537 1537 1537 1537 1538 1538 1538 1539 1539 1539 1539 1539 1539 1539 1539 1539 1539 1539 1539 1539 1539 1539 1539 1539 1539 1539 1539 1539 1539 1538 1538 1538 1538 1538 1538 1537 1537 1537 1537 1536 1536 1536 1535 1535 1534 1534 1533 1533 1532 1532 1531 1531 1530 1530 1529 1529 1528
1514 1515 1515 1516 1517 1517 1518 1519 1520 1520 1521 1521 1522 1523 1523 1524 1524 1525 1525 1526 1526 1527 1527 1528 1529 1529 1530 1530 1530 1531 1531 1532 1532 1533 1533 1533 1534 1534 1534 1535 1535 1535 1535 1535 1536 1536 1536 1537 1537 1537 1538 1538 1538 1538 1538 1539 1539 1539 1539 1539 1539 1539 1539 1539 1539 1539 1539 1539 1539 1539 1539 1539 1538 1538 1538 1538 1538 1538 1538 1538 1537 1537 1537 1537 1536 1536 1535 1535 1535 1535 1534 1533 1533 1532 1532 1531 1530 1530 1529 1529 1528 1528 1527
1514 1515 1515 1516 1517 1517 1518 1519 1520 1520 1521 1521 1522 1522 1523 1524 1524 1525 1525 1526 1526 1527 1527 1528 1528 1529 1530 1530 1530 1531 1531 1532 1532 1533 1533 1533 1534 1534 1534 1534 1535 1535 1535 1535 1535 1536 1536 1536 1537 1537 1537 1537 1538 1538 1538 1538 1538 1539 1539 1539 1539 1539 1539 1539 1539 1539 1539 1539 1538 1538 1538 1538 1538 1538 1538 1538 1538 1538 1537 1537 1537 1537 1536 1536 1536 1535 1535 1535 1534 1534 1533 1533 1532 1532 1531 1530 1530 1529 1529 1528 1527 1527 1526
1514 1515 1515 1516 1517 1517 1518 1519 1519 1520 1520 1521 1522 1522 1523 1523 1524 1525 1525 1525 1526 1527 1527 1528 1528 1529 1530 1530 1530 1531 1531 1532 1532 1532 1533 1533 1533 1534 1534 1534 1534 1535 1535 1535 1535 1535 1536 1536 1536 1537 1537 1537 1537 1538 1538 1538 1538 1538 1538 1538 1538 1538 1538 1538 1538 1538 1538 1538 1538 1538 1538 1538 1538 1538 1538 1538 1537 1537 1537 1537 1536 1536 1536 1535 1535 1535 1535 1534 1534 1533 1533 1532 1531 1531 1530 1530 1529 1528 1528 1527 1526 1526 1525
1514 1515 1515 1516 1517 1517 1518 1519 1519 1520 1520 1521 1521 1522 1523 1523 1524 1524 1525 1525 1526 1526 1527 1527 1528 1529 1529 1530 1530 1530 1531 1531 1532 1532 1533 1533 1533 1533 1534 1534 1534 1535 1535 1535 1535 1535 1535 1536 1536 1536 1536 1537 1537 1537 1537 1538 1538 1538 1538 1538 1538 1538 1538 1538 1538 1538 1538 1538 1538 1538 1538 1538 1537 1537 1537 1537 1537 1537 1536 1536 1536 1536 1535 1535 1535 1534 1534 1534 1533 1532 1532 1531 1531 1530 1530 1529 1528 1528 1527 1526 1525 1525 1524
1514 1514 1515 1516 1516 1517 1518 1519 1519 1520 1520 1521 1521 1522 1522 1523 1524 1524 1525 1525 1525 1526 1526 1527 1528 1528 1529 1529 1530 1530 1531 1531 1532 1532 1532 1533 1533 1533 1533 1534 1534 1534 1534 1535 1535 1535 1535 1535 1536 1536 1536 1536 1537 1537 1537 1537 1537 1538 1538 1538 1538 1538 1538 1537 1537 1537 1537 1537 1537 1537 1537 1537 1537 1537 1537 1537 1536 1536 1536 1536 1535 1535 1535 1535 1534 1534 1533 1533 1532 1532 1531 1531 1530 1530 1529 1528 1528 1527 1526 1525 1525 1524 1523
1513 1514 1515 1515 1516 1517 1518 1518 1519 1520 1520 1521 1521 1522 1522 1523 1523 1524 1524 1525 1525 1525 1526 1527 1527 1528 1528 1529 1530 1530 1530 1531 1531 1532 1532 1532 1533 1533 1533 1533 1534 1534 1534 1534 1535 1535 1535 1535 1535 1535 1536 1536 1536 1536 1537 1537 1537 1537 1537 1537 1537 1537 1537 1537 1537 1537 1537 1537 1537 1537 1537 1537 1537 1537 1536 1536 1536 1536 1535 1535 1535 1535 1534 1534 1534 1533 1533 1532 1532 1531 1530 1530 1529 1529 1528 1527 1527 1526 1525 1525 1524 1523 1522
1513 1514 1515 1515 1516 1517 1517 1518 1519 1519 1520 1520 1521 1522 1522 1523 1523 1524 1524 1524 1525 1525 1526 1526 1527 1528 1528 1529 1529 1530 1530 1531 1531 1531 1532 1532 1532 1532 1533 1533 1533 1533 1534 1534 1534 1535 1535 1535 1535 1535 1535 1535 1536 1536 1536 1536 1536 1537 1537 1537 1537 1537 1537 1537 1537 1536 1536 1536 1536 1536 1536 1536 1536 1536 1536 1536 1535 1535 1535 1535 1534 1534 1534 1533 1533 1532 1532 1531 1531 1530 1530 1529 1528 1528 1527 1526 1526 1525 1525 1524 1523 1522 1522
1513 1514 1514 1515 1516 1516 1517 1518 1518 1519 1520 1520 1521 1521 1522 1522 1523 1523 1524 1524 1525 1525 1525 1526 1527 1527 1528 1528 1529 1529 1530 1530 1531 1531 1531 1532 1532 1532 1532 1533 1533 1533 1533 1534 1534 1534 1534 1535 1535 1535 1535 1535 1535 1535 1536 1536 1536 1536 1536 1536 1536 1536 1536 1536 1536 1536 1536 1536 1536 1536 1536 1536 1536 1535 1535 1535 1535 1535 1534 1534 1534 1533 1533 1533 1532 1532 1531 1531 1530 1530 1529 1528 1528 1527 1526 1525 1525 1524 1524 1523 1522 1521 1521
1512 1513 1514 1515 1515 1516 1517 1517 1518 1519 1519 1520 1520 1521 1522 1522 1522 1523 1523 1524 1524 1525 1525 1526 1526 1527 1527 1528 1529 1529 1530 1530 1530 1531 1531 1531 1531 1532 1532 1532 1532 1533 1533 1533 1534 1534 1534 1534 1534 1535 1535 1535 1535 1535 1535 1535 1535 1536 1536 1536 1536 1536 1536 1536 1536 1536 1535 1535 1535 1535 1535 1535 1535 1535 1535 1535 1535 1534 1534 1534 1533 1533 1532 1532 1531 1531 1530 1530 1530 1529 1528 1528 1527 1526 1525 1525 1524 1523 1523 1522 1521 1520 1520
1512 1513 1514 1514 1515 1515 1516 1517 1518 1518 1519 1520 1520 1521 1521 1522 1522 1523 1523 1524 1524 1525 1525 1525 1526 1526 1527 1528 1528 1529 1529 1530 1530 1530 1530 1531 1531 1531 1531 1532 1532 1532 1532 1533 1533 1533 1534 1534 1534 1534 1534 1534 1535 1535 1535 1535 1535 1535 1535 1535 1535 1535 1535 1535 1535 1535 1535 1535 1535 1535 1535 1535 1535 1535 1534 1534 1534 1534 1533 1533 1532 1532 1531 1531 1530 1530 1530 1529 1529 1528 1527 1527 1526 1525 1525 1524 1523 1522 1521 1521 1520 1519 1518
1511 1512 1513 1514 1514 1515 1516 1516 1517 1518 1518 1519 1520 1520 1521 1521 1522 1522 1523 1523 1524 1524 1525 1525 1526 1526 1527 1527 1528 1528 1529 1529 1530 1530 1530 1530 1530 1531 1531 1531 1531 1532 1532 1532 1533 1533 1533 1533 1533 1534 1534 1534 1534 1534 1534 1534 1535 1535 1535 1535 1535 1535 1535 1535 1535 1535 1535 1535 1534 1534 1534 1534 1534 1534 1534 1533 1533 1533 1532 1532 1532 1531 1531 1530 1530 1529 1529 1528 1528 1527 1526 1526 1525 1525 1524 1523 1522 1521 1520 1520 1519 1518 1517
1511 1511 1512 1513 1514 1514 1515 1516 1516 1517 1518 1519 1519 1520 1520 1521 1521 1522 1523 1523 1524 1524 1525 1525 1525 1526 1526 1527 1528 1528 1528 1529 1529 1529 1529 1530 1530 1530 1530 1530 1531 1531 1531 1532 1532 1532 1532 1533 1533 1533 1533 1533 1534 1534 1534 1534 1534 1534 1534 1534 1534 1534 1534 1534 1534 1534 1534 1534 1534 1534 1533 1533 1533 1533 1533 1532 1532 1532 1532 1531 1531 1530 1530 1529 1529 1528 1528 1527 1526 1526 1525 1525 1524 1523 1523 1522 1521 1520 1519 1518 1517 1517 1516
1510 1511 1512 1512 1513 1514 1515 1515 1516 1516 1517 1518 1518 1519 1520 1520 1521 1522 1522 1523 1524 1524 1525 1525 1525 1525 1526 1527 1527 1528 1528 1528 1528 1529 1529 1529 1529 1530 1530 1530 1530 1530 1531 1531 1531 1532 1532 1532 1532 1532 1533 1533 1533 1533 1533 1533 1533 1533 1533 1533 1533 1533 1533 1534 1534 1533 1533 1533 1533 1533 1533 1532 1532 1532 1532 1531 1531 1531 1530 1530 1530 1530 1529 1528 1528 1527 1527 1526 1525 1525 1524 1523 1523 1522 1521 1520 1520 1519 1518 1517 1516 1515 1515
1510 1510 1511 1512 1512 1513 1514 1514 1515 1515 1516 1517 1518 1519 1519 1520 1521 1521 1522 1523 1523 1524 1524 1525 1525 1525 1526 1526 1527 1527 1527 1528 1528 1528 1529 1529 1529 1529 1529 1530 1530 1530 1530 1530 1531 1531 1531 1531 1531 1532 1532 1532 1532 1532 1532 1533 1533 1533 1533 1533 1533 1533 1533 1533 1533 1533 1532 1532 1532 1532 1532 1531 1531 1531 1531 1530 1530 1530 1530 1529 1529 1528 1528 1527 1527 1526 1525 1525 1524 1523 1523 1522 1521 1520 1520 1519 1518 1517 1516 1515 1515 1514 1513
1509 1510 1510 1511 1512 1512 1513 1514 1514 1515 1515 1516 1517 1518 1519 1520 1520 1521 1522 1522 1523 1524 1524 1524 1525 1525 1525 1526 1526 1527 1527 1527 1528 1528 1528 1528 1528 1529 1529 1529 1529 1529 1530 1530 1530 1530 1530 1530 1531 1531 1531 1531 1531 1531 1532 1532 1532 1532 1532 1532 1532 1532 1532 1532 1532 1532 1531 1531 1531 1531 1531 1531 1530 1530 1530 1530 1529 1529 1529 1528 1528 1527 1527 1526 1525 1525 1524 1523 1523 1522 1521 1520 1520 1519 1518 1517 1516 1515 1515 1514 1513 1512 1511
1508 1509 1509 1510 1511 1511 1512 1513 1513 1514 1515 1516 1517 1518 1519 1520 1520 1521 1521 1522 1522 1523 1523 1524 1524 1525 1525 1525 1526 1526 1526 1527 1527 1527 1527 1528 1528 1528 1528 1528 1529 1529 1529 1529 1529 1529 1529 1530 1530 1530 1530 1530 1530 1531 1531 1531 1531 1531 1531 1531 1531 1531 1531 1531 1531 1531 1530 1530 1530 1530 1530 1530 1530 1529 1529 1529 1528 1528 1527 1527 1526 1526 1525 1525 1524 1523 1523 1522 1521 1520 1520 1519 1518 1517 1516 1515 1514 1514 1513 1512 1511 1510 1510
1507 1507 1508 1509 1510 1510 1511 1512 1513 1513 1514 1515 1516 1517 1518 1519 1519 1520 1520 1521 1522 1522 1523 1523 1524 1524 1525 1525 1525 1526 1526 1526 1526 1527 1527 1527 1527 1528 1528 1528 1528 1528 1528 1528 1528 1528 1529 1529 1529 1529 1529 1530 1530 1530 1530 1530 1530 1530 1530 1530 1530 1530 1530 1530 1530 1530 1530 1530 1530 1529 1529 1529 1529 1528 1528 1528 1527 1527 1526 1526 1525 1525 1524 1523 1522 1522 1521 1520 1520 1519 1518 1517 1516 1515 1514 1513 1512 1512 1511 1510 1509 1508 1507
1506 1507 1508 1508 1509 1510 1511 1511 1512 1513 1514 1515 1515 1516 1517 1518 1518 1519 1520 1520 1521 1522 1522 1523 1523 1524 1524 1525 1525 1525 1525 1526 1526 1526 1526 1527 1527 1527 1528 1528 1527 1527 1527 1527 1527 1527 1528 1528 1528 1528 1528 1529 1529 1529 1529 1529 1529 1529 1529 1529 1529 1529 1529 1529 1529 1529 1529 1529 1529 1528 1528 1528 1528 1527 1527 1526 1526 1525 1525 1525 1524 1523 1523 1522 1521 1520 1520 1519 1518 1517 1516 1515 1514 1513 1512 1511 1510 1510 1509 1508 1507 1506 1505
1505 1506 1507 1508 1508 1509 1510 1511 1511 1512 1513 1514 1514 1515 1516 1517 1518 1518 1519 1520 1520 1521 1522 1522 1523 1523 1524 1524 1525 1525 1525 1525 1526 1526 1526 1526 1527 1527 1527 1527 1527 1527 1527 1526 1526 1526 1526 1527 1527 1527 1527 1528 1528 1528 1528 1528 1528 1528 1528 1528 1528 1528 1528 1528 1528 1528 1528 1528 1528 1527 1527 1527 1526 1526 1525 1525 1525 1524 1524 1523 1523 1522 1521 1520 1520 1519 1518 1517 1516 1515 1514 1513 1512 1511 1510 1509 1508 1508 1507 1506 1505 1504 1503
1504 1505 1506 1507 1508 1509 1510 1510 1511 1511 1512 1513 1514 1515 1515 1516 1517 1517 1518 1519 1520 1520 1521 1522 1522 1523 1523 1524 1524 1525 1525 1525 1525 1525 1526 1526 1526 1527 1527 1527 1527 1527 1527 1527 1526 1526 1525 1526 1526 1526 1527 1527 1527 1527 1527 1527 1527 1527 1527 1527 1527 1527 1527 1527 1527 1527 1527 1527 1527 1526 1526 1526 1525 1525 1525 1524 1524 1523 1522 1522 1521 1520 1520 1519 1518 1517 1516 1515 1514 1513 1512 1511 1510 1509 1508 1507 1506 1505 1505 1504 1503 1502 1501
1503 1504 1505 1506 1507 1508 1509 1510 1510 1511 1511 1512 1513 1514 1515 1515 1516 1517 1518 1518 1519 1520 1520 1521 1522 1522 1523 1523 1524 1524 1525 1525 1525 1525 1525 1526 1526 1526 1526 1526 1526 1526 1526 1526 1526 1526 1526 1525 1525 1526 1526 1526 1526 1526 1526 1526 1526 1526 1526 1526 1526 1526 1526 1526 1526 1526 1526 1526 1526 1525 1525 1525 1524 1524 1523 1523 1522 1522 1521 1520 1520 1519 1518 1517 1516 1515 1514 1513 1512 1511 1510 1509 1508 1506 1505 1504 1504 1503 1502 1502 1501 1500 1499
1502 1503 1504 1505 1506 1507 1508 1509 1510 1510 1511 1512 1512 1513 1514 1515 1515 1516 1517 1518 1519 1519 1520 1520 1521 1522 1522 1523 1523 1524 1524 1525 1525 1525 1525 1525 1525 1526 1526 1526 1526 1526 1526 1526 1526 1525 1525 1525 1525 1525 1525 1525 1525 1525 1525 1525 1525 1525 1525 1525 1525 1525 1525 1525 1525 1525 1525 1525 1525 1524 1524 1524 1523 1523 1522 1521 1521 1520 1520 1519 1518 1517 1516 1515 1514 1513 1512 1511 1510 1509 1508 1507 1505 1505 1504 1503 1502 1501 1500 1500 1499 1498 1496
1501 1502 1503 1504 1505 1506 1507 1508 1509 1510 1510 1511 1511 1512 1513 1514 1515 1515 1516 1517 1518 1519 1519 1520 1520 1521 1522 1522 1523 1523 1523 1524 1524 1524 1525 1525 1525 1525 1525 1525 1526 1526 1526 1526 1526 1525 1525 1525 1525 1525 1524 1524 1525 1525 1525 1525 1525 1525 1525 1525 1525 1524 1524 1524 1524 1524 1524 1524 1524 1523 1523 1522 1522 1521 1520 1520 1519 1519 1518 1517 1516 1515 1514 1513 1511 1510 1509 1509 1508 1507 1506 1505 1504 1503 1502 1501 1500 1499 1498 1498 1497 1495 1494
1500 1501 1502 1503 1504 1505 1506 1507 1508 1509 1510 1510 1511 1512 1512 1513 1514 1515 1515 1516 1517 1518 1519 1519 1520 1520 1521 1521 1522 1522 1523 1523 1524 1524 1524 1524 1525 1525 1525 1525 1525 1525 1525 1525 1525 1525 1525 1525 1525 1525 1524 1522 1522 1523 1524 1524 1524 1524 1524 1524 1523 1523 1523 1523 1523 1523 1523 1522 1522 1522 1521 1521 1520 1520 1519 1518 1518 1517 1516 1516 1515 1513 1512 1511 1509 1508 1507 1506 1505 1504 1503 1503 1502 1501 1500 1499 1498 1497 1497 1496 1495 1493 1492
1499 1500 1501 1502 1503 1504 1505 1506 1507 1508 1509 1510 1510 1511 1511 1512 1513 1514 1515 1515 1516 1517 1518 1519 1519 1520 1520 1521 1521 1521 1522 1522 1523 1523 1524 1524 1524 1524 1524 1524 1525 1525 1525 1525 1525 1525 1525 1525 1525 1524 1524 1522 1520 1520 1522 1522 1522 1523 1523 1523 1522 1522 1522 1522 1522 1522 1521 1521 1521 1520 1520 1520 1519 1518 1517 1517 1516 1516 1515 1514 1513 1512 1510 1509 1508 1507 1506 1505 1503 1502 1501 1500 1500 1499 1498 1497 1496 1495 1495 1494 1493 1492 1491
1498 1499 1500 1501 1502 1503 1504 1505 1506 1507 1508 1509 1509 1510 1510 1511 1512 1513 1514 1515 1516 1517 1517 1518 1518 1519 1520 1520 1520 1520 1521 1521 1522 1522 1523 1523 1523 1523 1524 1524 1524 1524 1524 1524 1524 1524 1524 1524 1524 1524 1524 1523 1521 1519 1518 1519 1520 1521 1521 1521 1521 1521 1520 1520 1520 1520 1520 1520 1520 1519 1519 1518 1518 1517 1516 1515 1515 1514 1513 1512 1511 1510 1509 1508 1506 1505 1504 1503 1502 1501 1500 1499 1498 1497 1495 1495 1494 1493 1492 1492 1491 1490 1489
1497 1498 1499 1500 1501 1502 1503 1504 1505 1505 1507 1508 1508 1509 1510 1510 1511 1512 1513 1514 1515 1516 1516 1517 1518 1518 1519 1519 1520 1520 1520 1521 1521 1521 1522 1522 1522 1523 1523 1523 1523 1523 1524 1523 1523 1524 1524 1524 1524 1524 1523 1523 1522 1520 1517 1517 1517 1519 1519 1520 1520 1519 1519 1519 1519 1519 1519 1519 1519 1518 1517 1517 1516 1516 1515 1514 1513 1512 1511 1510 1509 1508 1507 1506 1505 1503 1502 1501 1500 1499 1498 1497 1496 1495 1494 1493 1492 1491 1490 1490 1489 1488 1487